Copper Harbor, MI

2:07 AM EDT on April 21, 2018 (GMT -0400)
Copper Harbor

Weather History for KP59 - January, 2013

Change the Weather History Date:

Tuesday, January 29, 2013

  Actual Average Record
Temperature  
Mean Temperature 34 °F -  
Max Temperature 35 °F 24 °F 39 °F (2008)
Min Temperature 30 °F 14 °F 0 °F (1997)
Degree Days  
Heating Degree Days 32    
Moisture  
Dew Point 31 °F    
Average Humidity 91    
Maximum Humidity 100    
Minimum Humidity 79    
Precipitation  
Precipitation 0.06 in - - ()
Sea Level Pressure  
Sea Level Pressure 29.60 in    
Wind  
Wind Speed 11 mph (SW)    
Max Wind Speed 25 mph    
Max Gust Speed 36 mph    
Averages and records for this station are not official NWS values.
T = Trace of Precipitation, MM = Missing Value Source: NWS Daily Summary

Daily Weather History Graph

Daily Weather History Graph

Search for Another Location

Airport or City:

Astronomy

Jan. 29, 2013 Rise Set
Actual Time 8:21 AM EST 5:49 PM EST
Civil Twilight 7:47 AM EST 6:22 PM EST
Nautical Twilight 7:10 AM EST 6:59 PM EST
Astronomical Twilight 6:34 AM EST 7:35 PM EST
Moon 9:01 PM EST (1/29) 9:03 AM EST (1/29)
Length of Visible Light 10h 34m
Length of Day
9h 27m
Waning Gibbous, 94% of the Moon is Illuminated
Jan 29
Waning Gibbous
Feb 3
Last Quarter
Feb 10
New
Feb 17
First Quarter
Feb 25
Full

Hourly Weather History & Observations

Time (EST) Temp. Windchill Dew Point Humidity Pressure Visibility Wind Dir Wind Speed Gust Speed Precip Events Conditions
12:51 AM 32.0 °F 25.6 °F 28.9 °F 88% 29.86 in - South 6.9 mph - N/A   Unknown
1:51 AM 32.0 °F 27.5 °F 28.9 °F 88% 29.81 in - South 4.6 mph - N/A   Unknown
2:51 AM 32.0 °F 24.8 °F 30.0 °F 92% 29.76 in - SSW 8.1 mph - N/A   Unknown
3:51 AM 32.0 °F 25.6 °F 30.0 °F 92% 29.71 in - South 6.9 mph - N/A   Unknown
4:51 AM 32.0 °F 18.6 °F 30.0 °F 92% 29.65 in - SW 25.3 mph 32.2 mph N/A   Unknown
5:51 AM 32.0 °F 19.5 °F 30.0 °F 92% 29.61 in - SSW 21.9 mph 35.7 mph N/A   Unknown
6:51 AM 32.0 °F 20.1 °F 30.9 °F 96% 29.56 in - SSW 19.6 mph 35.7 mph 0.04 in   Unknown
7:51 AM 33.1 °F 23.4 °F 30.9 °F 92% 29.55 in - SSW 13.8 mph 28.8 mph N/A   Unknown
8:51 AM 33.1 °F 25.5 °F 30.9 °F 92% 29.54 in - SSE 9.2 mph 16.1 mph N/A   Unknown
9:51 AM 33.1 °F 23.9 °F 30.9 °F 92% 29.51 in - SSW 12.7 mph 21.9 mph N/A   Unknown
10:51 AM 33.1 °F 30.0 °F 32.0 °F 96% 29.52 in - Variable 3.5 mph - N/A   Unknown
11:51 AM 33.1 °F - 33.1 °F 100% 29.51 in - Calm Calm - 0.02 in   Unknown
12:51 PM 33.1 °F 28.7 °F 33.1 °F 100% 29.48 in - SW 4.6 mph - N/A   Unknown
1:51 PM 35.1 °F 30.1 °F 34.0 °F 96% 29.50 in - Variable 5.8 mph - N/A   Unknown
2:51 PM 35.1 °F 30.1 °F 33.1 °F 92% 29.50 in - Variable 5.8 mph - N/A   Unknown
3:51 PM 34.0 °F 25.0 °F 33.1 °F 96% 29.53 in - NNW 12.7 mph 19.6 mph N/A   Unknown
4:51 PM 34.0 °F 24.2 °F 32.0 °F 92% 29.55 in - North 15.0 mph - N/A   Unknown
5:51 PM 34.0 °F 23.4 °F 30.9 °F 89% 29.57 in - North 17.3 mph - N/A   Unknown
6:51 PM 34.0 °F 24.6 °F 30.9 °F 89% 29.58 in - North 13.8 mph - N/A   Unknown
7:51 PM 34.0 °F 24.2 °F 28.9 °F 82% 29.58 in - NNE 15.0 mph - N/A   Unknown
8:51 PM 34.0 °F 24.6 °F 28.0 °F 79% 29.60 in - NNE 13.8 mph - N/A   Unknown
9:51 PM 33.1 °F 21.9 °F 28.9 °F 85% 29.60 in - North 18.4 mph 26.5 mph N/A   Unknown
10:51 PM 32.0 °F 19.8 °F 28.0 °F 85% 29.63 in - NNE 20.7 mph 27.6 mph N/A   Unknown
11:51 PM 30.9 °F 18.4 °F 26.1 °F 82% 29.59 in - NE 20.7 mph 25.3 mph N/A   Unknown